This is the latest recevied weather packets stored in our database for station/object SV2AHT-14. If no packets are shown the sender has not sent any weather packets the latest 10 day(s).
| Time | Temp. | Humidity | Pressure | Rain* | Wind** | Luminosity | Snow |
|---|---|---|---|---|---|---|---|
| 1777497573 | 11.11° C | 60% | 818.5 hPa | - | - | - | - |
| 1777496673 | 10.56° C | 59% | 818.7 hPa | - | - | - | - |
| 1777495773 | 10.56° C | 58% | 818.6 hPa | - | - | - | - |
| 1777484073 | 13.33° C | 40% | 818.5 hPa | - | - | - | - |
| 1777471463 | 16.11° C | 37% | 818.7 hPa | - | - | - | - |
| 1777451670 | 16.67° C | 47% | 819.8 hPa | - | - | - | - |
| 1777413324 | 10.56° C | 39% | 819.9 hPa | - | - | - | - |
| 1777411527 | 10.56° C | 39% | 819.9 hPa | - | - | - | - |
| 1777407923 | 10.56° C | 39% | 819.7 hPa | - | - | - | - |
| 1777405217 | 11.11° C | 38% | 819.7 hPa | - | - | - | - |
| 1777398960 | 16.11° C | 38% | 819.5 hPa | - | - | - | - |
| 1777398923 | 16.11° C | 38% | 819.5 hPa | - | - | - | - |
| 1777389017 | 20° C | 37% | 819.3 hPa | - | - | - | - |
| 1777386326 | 23.33° C | 32% | 819.4 hPa | - | - | - | - |
| 1777384524 | 22.78° C | 33% | 819.3 hPa | - | - | - | - |
| 1777381823 | 22.22° C | 34% | 816.7 hPa | - | - | - | - |
| 1777375525 | 21.67° C | 38% | 819.8 hPa | - | - | - | - |
| 1777371926 | 22.22° C | 38% | 819.9 hPa | - | - | - | - |
| 1777371023 | 22.78° C | 38% | 820.1 hPa | - | - | - | - |
| 1777369254 | 21.67° C | 40% | 820.1 hPa | - | - | - | - |
| 1777369223 | 21.67° C | 40% | 820.1 hPa | - | - | - | - |
| 1777368323 | 21.11° C | 41% | 820 hPa | - | - | - | - |
| 1777358423 | 13.89° C | 67% | 819.6 hPa | - | - | - | - |
| 1777334307 | 8.33° C | 62% | 819.4 hPa | - | - | - | - |
| 1777332503 | 9.44° C | 62% | 819.5 hPa | - | - | - | - |
* Rain since midnight (hover to see other rain measurements)
** Current wind speed in m/s (hover to see current wind gust speed)